Regional Weather Roundup
Issued by NWS Charleston, WV

Home | Current Version | Previous Version | Text Only | Print | Product List | Glossary Off
Versions: 1 2 3 4 5 6 7 8 9 10 11 12 13 14 15 16 17 18 19 20 21 22 23 24 25 26 27 28 29 30 31 32 33 34 35 36 37 38 39 40 41 42 43 44 45 46 47 48 49 50

000
ASUS41 KRLX 040710
RWRRLX
West Virginia Regional Weather Roundup
National Weather Service Charleston WV
200 AM EST WED MAR 04 2015

Note: "fair" indicates few or no clouds below 12,000 feet with no
significant weather and/or obstructions to visibility.

WVZ003-040800-
Northern Panhandle of West Virginia

CITY           SKY/WX    TMP DP  RH WIND       PRES   REMARKS
WHEELING       LGT RAIN  41  38  89 W15       29.82R
$$

WVZ009-040800-
Northwest West Virginia

CITY           SKY/WX    TMP DP  RH WIND       PRES   REMARKS
PARKERSBURG    RAIN      45  43  93 NW10      29.87R
$$

WVZ006-040800-
Western West Virginia

CITY           SKY/WX    TMP DP  RH WIND       PRES   REMARKS
HUNTINGTON     RAIN      51  50  96 W6        29.85R FOG
$$

WVZ015-040800-
West Central West Virginia

CITY           SKY/WX    TMP DP  RH WIND       PRES   REMARKS
CHARLESTON     LGT RAIN  53  52  96 W5        29.84R FOG
$$

WVZ022-031-040800-
North Central West Virginia

CITY           SKY/WX    TMP DP  RH WIND       PRES   REMARKS
CLARKSBURG     RAIN      49  49 100 NW8       29.81R FOG
MORGANTOWN     LGT RAIN  50  45  83 CALM      29.81R
$$

WVZ025-035-042-045-040800-
Southern West Virginia

CITY           SKY/WX    TMP DP  RH WIND       PRES   REMARKS
BECKLEY        RAIN      51  50  96 SW10      29.86S FOG
LOGAN          RAIN      54  54 100 S6        29.81S VSB 3/4
BLUEFIELD      CLOUDY    58  52  80 SW15G25   29.89F
LEWISBURG      MIX PCPN  36  35  96 CALM      29.88S
$$

WVZ047-040800-
Northern Mountains of West Virginia

CITY           SKY/WX    TMP DP  RH WIND       PRES   REMARKS
ELKINS         RAIN      50  48  93 NW14G25   29.83R FOG
$$

WVZ052-040800-
Eastern Panhandle of West Virginia

CITY           SKY/WX    TMP DP  RH WIND       PRES   REMARKS
MARTINSBURG    CLOUDY    37  33  85 S5        29.80R FOG
PETERSBURG     DRIZZLE   42  39  88 E3        29.81R
$$



USA.gov is the U.S. government's official web portal to all federal, state and local government web resources and services.